{"data":{"norad_id":58297,"intl_designator":"2023-174AT","name":"UMBRA-07","alt_names":[],"object_type":"PAYLOAD","status":"ACTIVE","operator":null,"country":"US","launch_date":"2023-11-11","launch_site_code":"AFWTR","launch_vehicle":null,"mission":null,"orbit_class":"UNKNOWN","rcs_meters":null,"size_class":null,"mass_kg":null,"dimensions":null,"purposes":[],"wikipedia_slug":null,"has_3d_model":false,"image_url":null,"decayed_at":null,"tle_current":{"epoch":"2026-05-25T03:51:05.419296Z","epoch_age_seconds":65206,"freshness":"FRESH","line1":"1 58297U 23174AT  26145.16047939  .00009907  00000+0  63629-3 0  9998","line2":"2 58297  97.3809 201.8014 0004633 139.7476 220.4097 15.08629972139947","mean_motion":15.08629972,"eccentricity":0.0004633,"inclination_deg":97.3809,"raan_deg":201.8014,"arg_perigee_deg":139.7476,"mean_anomaly_deg":220.4097,"bstar":0.00063629,"rev_number":13994,"period_min":95.450841274947,"perigee_km":537.18008356999,"apogee_km":543.59078645828,"semimajor_km":6918.5224350141,"source":"CELESTRAK","updated_at":"2026-05-25T13:38:00.646496Z"}}}